Weather History for KPMP - December, 2012

Change the Weather History Date:

Sunday, December 16, 2012

  Actual Average (KFLL) Record (KFLL)
Temperature  
Mean Temperature 76 °F 71 °F  
Max Temperature 79 °F 78 °F 86 °F (1947)
Min Temperature 72 °F 64 °F 34 °F (1968)
Degree Days  
Heating Degree Days 0 1  
Month to date heating degree days 11  
Since 1 July heating degree days 13  
Cooling Degree Days 10 7  
Month to date cooling degree days 125  
Year to date cooling degree days 4638  
Growing Degree Days 26 (Base 50)    
Moisture  
Dew Point 67 °F    
Average Humidity 77    
Maximum Humidity 90    
Minimum Humidity 64    
Precipitation  
Precipitation 0.00 in 0.08 in 1.43 in (1914)
Month to date precipitation 1.37  
Year to date precipitation 61.09  
Snow  
Snow 0.00 in - - ()
Month to date snowfall  
Since 1 July snowfall  
Snow Depth -    
Sea Level Pressure  
Sea Level Pressure 30.01 in    
Wind  
Wind Speed 9 mph (SE)    
Max Wind Speed 12 mph    
Max Gust Speed -    
Visibility 10 miles    
Events Rain    
T = Trace of Precipitation, MM = Missing Value Source: NWS Daily Summary

Daily Weather History Graph

Daily Weather History Graph

Search for Another Location

Airport or City:

Trip Planner

Search our weather history database for the weather conditions in past years. The results will help you decide how hot, cold, wet, or windy it might be!

Date:

Astronomy

Dec. 16, 2012 Rise Set
Actual Time 7:01 AM EST 5:31 PM EST
Civil Twilight 6:35 AM EST 5:56 PM EST
Nautical Twilight 6:07 AM EST 6:25 PM EST
Astronomical Twilight 5:38 AM EST 6:53 PM EST
Moon 9:49 AM EST (12/16) 9:25 PM EST (12/16)
Length of Visible Light 11h 20m
Length of Day
10h 30m
Waxing Crescent, 16% of the Moon is Illuminated
Dec 16
Waxing Crescent
Dec 20
First Quarter
Dec 28
Full
Jan 4
Last Quarter
Jan 11
New

Hourly Weather History & Observations

Time (EST) Temp. Dew Point Humidity Pressure Visibility Wind Dir Wind Speed Gust Speed Precip Events Conditions
12:53 AM 73.0 °F 66.0 °F 79% 30.04 in 10.0 mi East 10.4 mph - N/A   Partly Cloudy
1:53 AM 73.0 °F 64.9 °F 76% 30.03 in 10.0 mi East 10.4 mph - N/A   Scattered Clouds
2:53 AM 73.0 °F 66.0 °F 79% 30.01 in 10.0 mi ESE 10.4 mph - N/A   Scattered Clouds
3:53 AM 73.0 °F 64.9 °F 76% 30.02 in 10.0 mi ESE 8.1 mph - N/A   Mostly Cloudy
4:53 AM 72.0 °F 64.9 °F 78% 30.01 in 10.0 mi ESE 8.1 mph - N/A   Partly Cloudy
5:53 AM 73.0 °F 66.0 °F 79% 30.02 in 10.0 mi SE 9.2 mph - N/A   Partly Cloudy
6:53 AM 73.0 °F 66.0 °F 79% 30.03 in 10.0 mi SE 5.8 mph - N/A   Overcast
8:53 AM 75.9 °F 66.9 °F 74% 30.06 in 10.0 mi SE 11.5 mph - N/A   Partly Cloudy
9:53 AM 77.0 °F 66.9 °F 71% 30.06 in 10.0 mi SE 10.4 mph - N/A   Scattered Clouds
10:53 AM 77.0 °F 66.9 °F 71% 30.05 in 10.0 mi SE 9.2 mph - N/A   Scattered Clouds
11:53 AM 78.1 °F 64.9 °F 64% 30.03 in 10.0 mi South 10.4 mph - N/A   Mostly Cloudy
12:53 PM 79.0 °F 66.9 °F 66% 30.01 in 10.0 mi SSE 10.4 mph - N/A   Mostly Cloudy
1:53 PM 78.1 °F 66.0 °F 66% 29.98 in 10.0 mi SE 10.4 mph - N/A   Clear
2:53 PM 78.1 °F 66.0 °F 66% 29.97 in 10.0 mi SSE 11.5 mph - N/A   Partly Cloudy
3:53 PM 77.0 °F 66.9 °F 71% 29.97 in 10.0 mi ESE 10.4 mph - N/A   Scattered Clouds
4:53 PM 75.9 °F 66.0 °F 71% 29.99 in 10.0 mi SE 5.8 mph - N/A   Partly Cloudy
5:53 PM 73.9 °F 66.0 °F 76% 29.98 in 10.0 mi ESE 6.9 mph - N/A   Clear
6:53 PM 73.9 °F 66.9 °F 79% 29.98 in 10.0 mi ESE 3.5 mph - N/A   Clear
7:39 PM 75.2 °F 68.0 °F 78% 29.99 in 10.0 mi SE 4.6 mph - 0.00 in Rain Light Rain
7:53 PM 73.9 °F 69.1 °F 85% 29.99 in 10.0 mi SE 5.8 mph - 0.00 in   Mostly Cloudy
8:01 PM 73.4 °F 68.0 °F 83% 29.99 in 10.0 mi SE 6.9 mph - N/A   Mostly Cloudy
8:53 PM 75.0 °F 68.0 °F 79% 29.99 in 10.0 mi SE 4.6 mph - N/A   Overcast
9:53 PM 75.0 °F 68.0 °F 79% 29.99 in 10.0 mi SE 9.2 mph - 0.00 in   Mostly Cloudy
10:53 PM 73.9 °F 68.0 °F 82% 29.99 in 10.0 mi SE 6.9 mph - N/A   Clear
11:33 PM 73.4 °F 69.8 °F 88% 29.99 in 10.0 mi Variable 4.6 mph - N/A   Mostly Cloudy
11:48 PM 73.4 °F 69.8 °F 88% 29.98 in 10.0 mi South 4.6 mph - N/A   Scattered Clouds
11:53 PM 73.0 °F 70.0 °F 90% 29.99 in 10.0 mi SSW 3.5 mph - N/A   Mostly Cloudy